Weather Roundup
Issued by NWS Chicago, IL

Home | Current Version | Previous Version | Text Only | Print | Product List | Glossary On
Versions: 1 2 3 4 5 6 7 8 9 10 11 12 13 14 15 16 17 18 19 20 21 22 23 24 25 26 27 28 29 30 31 32 33 34 35 36 37 38 39 40 41 42 43 44 45 46 47 48 49 50
000
NZUS59 KLOT 201909
HRRLOT

CHICAGO AREA WEATHER ROUNDUP
NATIONAL WEATHER SERVICE CHICAGO/ROMEOVILLE IL
200 PM CDT FRI OCT 20 2017

NOTE: "FAIR" INDICATES FEW OR NO CLOUDS BELOW 12,000 FEET WITH NO
SIGNIFICANT WEATHER AND/OR OBSTRUCTIONS TO VISIBILITY.

* THESE STATIONS ARE NOT UNDER NWS QUALITY CONTROL. THEY ALSO MAY NOT
  REPORT WEATHER SUCH AS PRECIPITATION OR FOG.

ILZ005-006-012>014-019>023-202000-
NORTHEAST ILLINOIS

CITY           SKY/WX    TMP DP  RH WIND       PRES   REMARKS
OHARE          PTSUNNY   77  51  40 S14       30.09F
MIDWAY         PTSUNNY   78  51  38 S13       30.10F
AURORA         SUNNY     77  53  43 S12       30.10F
LANSING*       SUNNY     77  55  45 S15       30.12F
JOLIET*        SUNNY     79  53  40 S12       30.10F
WAUKEGAN       SUNNY     76  52  43 SW12      30.08F
DUPAGE AIRPORT SUNNY     77  54  44 S15       30.09F
WHEELING       SUNNY     78  53  41 S12       30.10F
KANKAKEE*      SUNNY     77  50  37 S12       30.12F
MORRIS*        SUNNY     79  50  35 S14       30.09F
LEWIS AIRPORT* SUNNY     78  52  39 S13       30.10F
NORTHERLY ISL    N/A     76  46  34 S15         N/A
$$

WIZ051-052-058>065-066-070>072-202000-
SOUTHEAST WISCONSIN

CITY           SKY/WX    TMP DP  RH WIND       PRES   REMARKS
MILWAUKEE      PTSUNNY   79  51  37 SW12      30.06F
KENOSHA*       SUNNY     77  50  38 SW14      30.08F
RACINE*        SUNNY     77  53  43 SE10G18   30.08F
BURLINGTON     SUNNY     78  51  38 S17       30.06F
WAUKESHA       SUNNY     73  46  38 S14G22    30.07F
WEST BEND      SUNNY     75  45  33 S12G17    30.04F
$$

INZ001>003-010>013-019-020-202000-
NORTHWEST INDIANA

CITY           SKY/WX    TMP DP  RH WIND       PRES   REMARKS
GARY*          MOSUNNY   79  46  31 SW12      30.12F
MICHIGAN CITY* NOT AVBL
RENSSELAER*    NOT AVBL
VALPARAISO     SUNNY     79  52  38 S9G18     30.14F
$$

LMZ740>746-202000-
SOUTHERN LAKE MICHIGAN

STATION/POSITION TIME  SKY/WX   TEMP WIND        PRES    VSBY
                                AIR  DIR/SP/G
                 (UTC)          (F)  (DEG/KT/KT) (MB)    (MI)
HARRISON CRIB    1840            72  170/  9/ 10   N/A
BURNHAM HARBOR   1900            77  180/ 12/ 16   N/A
CALUMET HARBOR   1842            76  190/ 11/ 15 1018.9F
BURNS HARBOR     1840            75  180/  9/ 18 1020.7F
MICHIGAN CITY    1840            74  180/ 15/ 17   N/A
$$

ABBREVIATIONS USED IN REMARKS
   TC - TEMPERATURE IN CELSIUS
  WCI - WIND CHILL INDEX
   HX - HEAT INDEX
  VSB - VISIBILITY
$$



USA.gov is the U.S. government's official web portal to all federal, state and local government web resources and services.